Simultaneous Nadir Overpasses (SNOs) Predictions

Prediction of SNOs between METOP-B and NOAA-19 Satellite Orbit:

Table of predicted SNOs for the next 14.0 days since TLE Epoch: 5/25/2024
Index Date (METOP-B) Time (METOP-B) Lat,Lon (METOP-B) SZA (METOP-B ) Date (NOAA-19) Time (NOAA-19) Lat,Lon (NOAA-19) SZA (NOAA-19 ) Distance(km) Time Diff (sec)
1 05/26/2024 19:06:18 74.23,-113.63 52.94 05/26/2024 19:05:05 74.21,-113.68 52.94 2.21 73
2 05/26/2024 19:56:49 -74.75, 55.06 126.59 05/26/2024 19:55:59 -74.73, 55.01 126.60 2.31 50
3 05/26/2024 20:47:23 75.02,-136.84 53.67 05/26/2024 20:46:46 75.02,-136.88 53.66 1.31 37
4 05/26/2024 21:37:55 -75.48, 31.83 125.91 05/26/2024 21:37:41 -75.48, 31.80 125.91 1.19 14
5 05/26/2024 22:28:30 75.71,-160.14 54.31 05/26/2024 22:28:29 75.71,-160.15 54.31 0.32 1
6 05/26/2024 23:19:03 -76.11, 8.50 125.31 05/26/2024 23:19:25 -76.11, 8.50 125.31 0.05 22
7 05/27/2024 00:09:38 76.33, 176.60 54.91 05/27/2024 00:10:13 76.33, 176.63 54.91 0.79 35
8 05/27/2024 01:00:13 -76.62, -15.00 124.80 05/27/2024 01:01:11 -76.63, -14.96 124.80 1.22 58
9 05/27/2024 01:50:49 76.80, 153.00 55.37 05/27/2024 01:52:00 76.81, 153.06 55.39 1.94 71
10 06/07/2024 13:13:28 71.77, -30.53 49.32 06/07/2024 13:12:16 71.79, -30.47 49.35 2.90 72
11 06/07/2024 14:04:00 -72.30, 137.79 130.24 06/07/2024 14:03:09 -72.31, 137.81 130.22 1.32 51
12 06/07/2024 14:54:34 72.56, -54.37 49.98 06/07/2024 14:53:59 72.54, -54.43 49.97 3.18 35
13 06/07/2024 15:44:59 -73.43, 114.80 129.27 06/07/2024 15:44:44 -73.45, 114.85 129.26 2.31 15
14 06/07/2024 16:35:34 73.64, -77.39 50.91 06/07/2024 16:35:35 73.63, -77.45 50.90 2.71 1
15 06/07/2024 17:26:04 -74.25, 91.38 128.56 06/07/2024 17:26:26 -74.22, 91.31 128.58 3.18 22
16 06/07/2024 18:16:37 74.55,-100.50 51.72 06/07/2024 18:17:14 74.54,-100.55 51.70 2.07 37
17 06/07/2024 19:07:09 -75.04, 68.16 127.84 06/07/2024 19:08:07 -75.03, 68.11 127.86 2.06 58



Historial Predications of SNOs between METOP-B and NOAA-19
